Warning: Javascript must be enabled to use all the features on this page!


Page Loading - Please Wait...

* We've detected you're using a mobile device. Find our Next Generation Station Page here.
Click to hideNews Bulletins

Peak Streamflow for the Nation

USGS 11251000 SAN JOAQUIN R BL FRIANT CA

Fresno County, California
Hydrologic Unit Code 18040001
Latitude  36°59'04", Longitude 119°43'24" NAD27
Drainage area 1,676  square miles
Gage datum 294.00 feet above NGVD29
Output formats
Table
Graph
Tab-separated file
peakfq (watstore) format
Reselect output format
Water
Year
Date Gage
Height
(feet)
Stream-
flow
(cfs)
1908 1908-04-30   7,0201,6
1909 1909-01-14   26,8001,6
1910 1909-12-30   30,7006
1911 1911-01-31   38,8001,6
1912 1912-06-05   15,3001,6
1913 1913-05-25   6,6101,6
1914 1914-01-25 21.72 60,0006
1915 1915-06-01 13.05 15,9006
1916 1916-03-20 13.40 17,0006
1917 1917-06-04 13.25 15,6006
1920 1920-05-20 12.67 14,0006
1921 1921-06-12 13.08 15,3006
1922 1922-06-07 14.48 20,5006
1923 1923-05-16 12.41 13,1006
1924 1924-05-09 9.60 6,1206
1925 1925-05-26 11.85 11,5006
1926 1926-05-05 10.90 9,1506
1927 1927-05-17 12.77 14,3006
1928 1928-03-25 12.35 13,1006
1929 1929-06-16 12.06 12,3006
1930 1930-05-21 9.20 5,2906
1931 1931-04-22 7.99 3,3806
1932 1932-02-07 14.50 20,5006
1933 1933-06-14 10.78 8,9006
1934 1933-12-13 9.25 5,2906
1935 1935-04-08 13.16 15,7006
1936 1936-02-22 15.70 25,0006
1937 1937-02-06 18.20 36,4006
1938 1937-12-11 23.80 77,2006
1939 1939-04-05 7.64 4,7006
1940 1940-03-27 12.20 13,4006
1941 1941-02-12 13.52 16,8006
1942 1942-05-26 10.97 10,5006
1943 1943-01-23 11.29 11,2006
1944 1944-04-07 5.99 2,6406
1945 1945-06-15 8.89 6,5406
1946 1946-05-07 8.90 6,5606
1947 1947-04-23 6.38 3,0206
1948 1948-06-30 7.29 4,2206
1949 1949-06-18 7.87 5,0006
1950 1950-04-29 6.16 2,7506
1951 1950-12-18 7.84 5,0506
1952 1952-04-14 9.64 8,0006
1953 1952-10-16 5.03 1,6406
1954 1954-05-21 5.86 2,5106
1955 1954-11-29 4.30 1,0306
1956 1956-01-05 9.00 7,1206
1957 1956-10-25 4.34 1,0906
1958 1958-04-06 9.28 7,5706
1959 1959-08-13 2.83 2546
1960 1960-06-16 3.26 4076
1961 1960-12-10 4.19 9736
1962 1962-02-11 3.91 7646
1963 1963-06-20 5.73 2,5006
1964 1964-08-10 2.62 1836
1965 1965-07-10 2.70 2156
1966 1966-07-13 2.602 1616
1967 1967-05-23 9.66 8,2306
1968 1968-04-28 2.74 2206
1969 1969-06-06 11.696 12,4006
1970 1970-02-04 5.34 1,9606
1971 1971-06-22 3.07 2706
1972 1972-06-06 2.72 2086
1973 1973-02-14 7.10 3,9006
1974 1974-01-22 4.66 1,3806
1975 1975-07-28 2.77 1826
1976 1976-05-01 3.00 2876
1977 1977-08-08 2.88 2336
1978 1978-04-26 9.83 7,6406
1979 1979-02-05 4.29 1,0406
1980 1980-02-21 10.11 8,0606
1981 1981-06-29 2.72 2326
1982 1982-04-12 10.23 8,2506
1983 1983-07-06 11.99 12,3006
1984 1983-12-28 7.78 4,6606
1985 1985-06-13 2.71 1806
1986 1986-02-18 13.41 15,5006
1987 1987-07-19 2.71 1966
1988 1988-07-19 2.71 1966
1989 1989-08-10 2.82 2256
1990 1990-08-06 2.90 2536
1991 1991-07-25 3.04 2606
1992 1992-08-24 3.63 3986
1993 1993-06-28 7.81 4,0706
1994 1994-07-26 3.05 2736
1995 1995-03-11 12.09 12,5006
1996 1996-05-16 9.51 7,1006
1997 1997-01-03 22.97 60,3006
1998 1998-06-17 9.92 7,9606
1999 1999-06-03 6.29 2,8006
2000 2000-06-18 6.03 2,5906
2001 2001-09-05 4.15 9116
2002 2002-07-15 2.89 2846
2003 2003-06-08 6.34 2,9406
2004 2004-09-18 3.44 4376
2005 2005-05-24 10.28 8,7506
2006 2006-04-05 11.06 10,3006
2007 2007-05-27 3.13 3696
2008 2008-08-10 3.11 3736
2009 2009-07-10 3.31 3856
2010 2010-04-12 5.09 1,7406
2011 2011-07-07 10.16 8,5606
2012 2012-05-16 4.23 1,1006
2013 2013-04-27 4.19 1,0706
2014 2014-07-02 4.58 1,4006
2015 2015-07-18 5.42 2,0206
2016 2016-07-21 4.53 1,4106
2017 2017-02-12 11.082 9,5806
2018 2018-04-04 4.39 1,3006
2019 2019-05-29 9.56 7,0906
2020 2020-07-04 3.442 6496
?
  Peak Gage-Height Qualification Codes.
?
  Peak Streamflow Qualification Codes.